[[{"header":{"parameterUnit":"m.s-1","parameterCategory":1,"la1":30.2991,"la2":30.254,"lo1":-89.0895,"lo2":-89.0444,"dy":0.0017,"dx":0.0017,"nx":28,"ny":28,"refTime":"2026-02-04T03:00:00:Z","depth":0,"parameterNumber":2,"parameterNumberName":"U-component_of_WINDS"},"data":[0,0,0,0,0,0,0,0,0,0,0,0,0,0,0,0,0,0,0,0,0,0,0,0,0,0,0,0,0,0,0,0,0,0,0,0,0,0,0,0,0,0,0,0,0,0,0,0,0,0,0,0,0,0,0,0,0,0,1.0912,1.0913,0,1.0979,1.098,1.0981,1.0976,1.0975,1.0974,1.0973,1.1044,1.1047,1.1049,0,0,0,0,0,0,0,0,0,0,0,0,0,1.078,1.0783,1.0912,1.0913,1.0913,1.0979,1.098,1.0981,1.0977,1.0975,1.0974,1.0973,1.1043,1.1046,1.105,0,0,0,0,0,0,0,0,0,0,0,0,0,1.0842,1.0784,1.0912,1.0919,1.092,1.0979,1.098,1.0981,1.0977,1.0975,1.0974,1.0972,1.1042,1.1046,1.105,1.1106,0,0,1.1063,1.1065,0,0,0,0,0,0,0,0,1.0838,1.0846,1.0917,1.0919,1.092,1.0968,1.0959,1.1023,1.0977,1.0955,1.0973,1.0972,1.102,1.1026,1.1042,1.1109,1.1112,1.1063,1.1066,1.1068,1.1069,0,0,0,0,0,0,0,1.0834,1.0844,1.0938,1.0918,1.092,1.0919,1.0927,1.0971,1.0995,1.0957,1.0957,1.0965,1.1021,1.1038,1.1043,1.1113,1.1063,1.1067,1.107,1.1071,1.1229,1.1231,0,0,0,0,0,0,1.0828,1.084,1.0936,1.094,1.0875,1.0923,1.0931,1.0954,1.0995,1.0999,1.0966,1.0965,1.1031,1.1039,1.1046,1.1113,1.1068,1.1072,1.1074,1.1228,1.123,1.1231,0,0,0,0,0,0,1.0825,1.0836,1.0934,1.089,1.0903,1.0927,1.0953,1.0956,1.0973,1.1002,1.1006,1.0979,1.103,1.104,1.1091,1.1116,1.1074,1.1077,1.1226,1.1228,1.1231,1.1249,0,0,0,0,0,0,1.0821,1.0835,1.0857,1.0891,1.0905,1.0977,1.0954,1.0959,1.098,1.0979,1.1015,1.102,1.103,1.1084,1.1095,1.1121,1.1081,1.1223,1.1227,1.123,1.1247,1.1252,1.1257,0,0,0,0,0,1.0817,1.086,1.0858,1.0869,1.0932,1.0979,1.0987,1.0997,1.0983,1.1004,1.1022,1.1018,1.1111,1.109,1.1101,1.1129,1.1222,1.1226,1.1229,1.1244,1.1251,1.1257,0,0,0,0,0,0,1.0829,1.0864,1.0863,1.0918,1.0945,1.0978,1.1005,1.1004,1.1037,1.1034,1.1046,1.1054,1.1105,1.1122,1.1098,1.1185,1.1165,1.1171,1.1172,1.1179,1.1184,1.1179,1.1084,0,0,0,0,0,1.0838,1.0872,1.0902,1.0948,1.0961,1.0981,1.1002,1.1008,1.1036,1.1048,1.107,1.1098,1.1134,1.1157,1.1192,1.1249,1.1257,1.1274,1.1279,1.1283,1.1288,1.1319,1.1327,1.1244,1.1244,1.1244,0,0,1.0857,1.0881,1.0902,1.0951,1.0973,1.1008,1.0991,1.103,1.1056,1.1054,1.1103,1.112,1.1153,1.1207,1.1232,1.1223,1.1313,1.1288,1.1291,1.1294,1.1324,1.1332,1.1339,1.1246,1.1246,1.1245,0,0,1.091,1.0932,1.0972,1.0994,1.1027,1.104,1.1049,1.1082,1.1093,1.1142,1.1141,1.1173,1.1234,1.1258,1.1277,1.1339,1.1336,1.1349,1.1377,1.1407,1.1413,1.1419,1.1441,1.1449,1.1355,1.1355,1.1355,0,1.093,1.0983,1.0993,1.1032,1.1053,1.1052,1.1094,1.1115,1.1157,1.1172,1.1161,1.1237,1.1259,1.1319,1.1333,1.135,1.1361,1.1346,1.1412,1.1418,1.1423,1.1444,1.1452,1.1356,1.1356,1.1356,1.1356,0,1.1006,1.1043,1.1072,1.1112,1.1137,1.1177,1.1193,1.1217,1.122,1.1234,1.1284,1.131,1.135,1.1364,1.1368,1.1424,1.1417,1.1409,1.1389,1.1432,1.1452,1.146,1.1358,1.1357,1.1357,1.1357,0,0,1.1069,1.1114,1.1124,1.1143,1.1178,1.1208,1.1247,1.1285,1.1305,1.1335,1.1368,1.142,1.1412,1.1434,1.1441,1.1467,1.1514,1.1456,1.1457,1.1465,1.1577,1.1583,1.1592,1.1512,1.1514,1.1515,1.1574,0,1.1126,1.1196,1.1205,1.1267,1.1302,1.1301,1.1336,1.1361,1.1375,1.1407,1.1422,1.1458,1.1445,1.1459,1.1485,1.1503,1.1536,1.1499,1.1544,1.1546,1.1536,1.1603,1.1609,1.1664,1.1582,1.1583,1.1584,0,1.1202,1.1232,1.1297,1.1328,1.1343,1.1374,1.1409,1.1439,1.1468,1.1477,1.1501,1.1504,1.1546,1.1524,1.1581,1.1555,1.1574,1.1585,1.1588,1.1593,1.1568,1.1609,1.1681,1.1689,1.1597,1.1596,1.1595,0,1.1241,1.1298,1.1345,1.136,1.1398,1.1419,1.1436,1.1464,1.1486,1.1516,1.1531,1.1566,1.1586,1.1613,1.1626,1.1609,1.1682,1.1662,1.1691,1.169,1.1706,1.1705,1.1782,1.1719,1.1718,1.1718,1.1718,0,1.1303,1.1343,1.1363,1.1391,1.1436,1.1447,1.1491,1.1507,1.1531,1.1563,1.1565,1.1594,1.1609,1.1641,1.1652,1.1697,1.1706,1.1714,1.1716,1.1714,1.1713,1.1727,1.1723,1.1721,1.172,1.172,1.1719,0,1.1354,1.1369,1.142,1.1451,1.1459,1.1491,1.1517,1.1545,1.1558,1.1598,1.1608,1.163,1.1668,1.1683,1.1729,1.1736,1.1789,1.1788,1.1779,1.1779,1.1807,1.1804,1.1896,1.1909,1.1837,1.1837,1.1838,0,1.1393,1.1424,1.1458,1.1479,1.1496,1.153,1.1552,1.1564,1.1587,1.1622,1.1646,1.1683,1.1714,1.1775,1.1794,1.183,1.183,1.186,1.1836,1.1832,1.1831,1.1828,1.1832,1.1864,1.1865,1.1866,1.1866,0,1.146,1.1466,1.1498,1.1532,1.1558,1.1586,1.1613,1.1631,1.1646,1.1672,1.1711,1.1734,1.1782,1.1819,1.1855,1.1873,1.1872,1.1874,1.1882,1.188,1.1873,1.1877,1.1791,1.1872,1.1871,1.1871,1.187,1.187,1.1506,1.1533,1.1561,1.1596,1.1618,1.1643,1.167,1.1687,1.1719,1.1758,1.1763,1.1804,1.1832,1.1881,1.19,1.1932,1.1925,1.1937,1.194,1.1943,1.1945,1.1868,1.1939,1.1939,1.1939,1.1939,1.1939,0,1.1573,1.1591,1.1623,1.1661,1.1689,1.1685,1.1715,1.1738,1.1774,1.18,1.183,1.1874,1.191,1.1933,1.1969,1.1991,1.1992,1.2,1.1999,1.2002,1.195,1.1939,1.1999,1.1999,1.1999,1.1999,1.1999,1.1999,1.1611,1.1657,1.1666,1.1722,1.1739,1.1779,1.1796,1.1819,1.184,1.1889,1.1919,1.1933,1.1958,1.1996,1.2029,1.2034,1.2048,1.2057,1.2062,1.2012,1.2006,1.2,1.199,1.206,1.206,1.2112,1.2112,1.2113]},{"header":{"parameterUnit":"m.s-1","parameterCategory":1,"la1":30.2991,"la2":30.254,"lo1":-89.0895,"lo2":-89.0444,"dy":0.0017,"dx":0.0017,"nx":28,"ny":28,"refTime":"2026-02-04T03:00:00:Z","depth":0,"parameterNumber":3,"parameterNumberName":"V-component_of_WINDS"},"data":[0,0,0,0,0,0,0,0,0,0,0,0,0,0,0,0,0,0,0,0,0,0,0,0,0,0,0,0,0,0,0,0,0,0,0,0,0,0,0,0,0,0,0,0,0,0,0,0,0,0,0,0,0,0,0,0,0,0,2.374,2.3741,0,2.3868,2.387,2.3871,2.3841,2.3839,2.3836,2.3834,2.397,2.3976,2.3982,0,0,0,0,0,0,0,0,0,0,0,0,0,2.3472,2.3478,2.374,2.3741,2.3743,2.3868,2.387,2.3872,2.3842,2.3839,2.3836,2.3833,2.3968,2.3975,2.3982,0,0,0,0,0,0,0,0,0,0,0,0,0,2.3594,2.3479,2.374,2.3743,2.3745,2.3868,2.387,2.3872,2.3842,2.3839,2.3835,2.3831,2.3966,2.3975,2.3983,2.4113,0,0,2.4011,2.4015,0,0,0,0,0,0,0,0,2.3587,2.3603,2.3741,2.3743,2.3745,2.3835,2.3825,2.3953,2.3843,2.3805,2.3834,2.383,2.3929,2.394,2.3973,2.4119,2.4125,2.4011,2.4017,2.4021,2.4023,0,0,0,0,0,0,0,2.3578,2.3598,2.3791,2.3743,2.3745,2.3739,2.3752,2.385,2.3886,2.3808,2.3806,2.3822,2.3929,2.3964,2.3976,2.4127,2.4011,2.4019,2.4025,2.4028,2.4386,2.439,0,0,0,0,0,0,2.3568,2.3591,2.3787,2.3795,2.3655,2.3747,2.3762,2.381,2.3885,2.3893,2.3825,2.382,2.3951,2.3965,2.398,2.4137,2.4021,2.4029,2.4034,2.4382,2.4387,2.4391,0,0,0,0,0,0,2.3562,2.3585,2.3782,2.3692,2.3717,2.3756,2.381,2.3814,2.3849,2.3897,2.3904,2.3854,2.3948,2.3968,2.408,2.4141,2.4033,2.4041,2.4377,2.4383,2.4389,2.4451,0,0,0,0,0,0,2.3555,2.3584,2.3632,2.3694,2.3722,2.3878,2.3814,2.3819,2.3864,2.3859,2.3927,2.3934,2.3947,2.4066,2.4088,2.4152,2.4048,2.4371,2.4379,2.4387,2.4444,2.4458,2.4471,0,0,0,0,0,2.3545,2.3646,2.3635,2.3659,2.3783,2.3881,2.3898,2.3909,2.3869,2.3919,2.395,2.3932,2.413,2.4078,2.4103,2.4169,2.4368,2.4377,2.4386,2.4437,2.4456,2.4471,0,0,0,0,0,0,2.3593,2.3654,2.3643,2.3766,2.3818,2.3876,2.3939,2.3928,2.3994,2.3987,2.3999,2.4015,2.4129,2.416,2.4101,2.4298,2.4243,2.4258,2.4274,2.4292,2.4305,2.4296,2.4055,0,0,0,0,0,2.3617,2.369,2.374,2.3844,2.3871,2.3901,2.3944,2.3948,2.4003,2.4026,2.4065,2.4121,2.4196,2.4245,2.4317,2.4447,2.4462,2.4505,2.4519,2.453,2.4543,2.4615,2.4635,2.4422,2.4422,2.4422,0,0,2.3669,2.3712,2.3758,2.3855,2.3896,2.3973,2.392,2.4003,2.4061,2.4039,2.4147,2.4177,2.4241,2.4362,2.4418,2.4392,2.4605,2.4542,2.455,2.4558,2.4627,2.4647,2.4665,2.4428,2.4427,2.4426,0,0,2.3804,2.3842,2.3933,2.3975,2.4037,2.4056,2.4078,2.4137,2.4156,2.4264,2.4249,2.4318,2.4447,2.4493,2.4533,2.4683,2.4669,2.4706,2.4779,2.4849,2.4866,2.4881,2.4936,2.4955,2.4718,2.4719,2.4719,0,2.3861,2.3975,2.3982,2.4067,2.4111,2.4092,2.4185,2.4226,2.4309,2.434,2.4309,2.447,2.4511,2.4643,2.468,2.4712,2.4739,2.4699,2.4862,2.4878,2.4892,2.4944,2.4965,2.4723,2.4722,2.4722,2.4721,0,2.4043,2.4122,2.4188,2.4267,2.4318,2.4407,2.4428,2.4479,2.4478,2.45,2.4611,2.4659,2.474,2.4771,2.4772,2.4904,2.4886,2.4859,2.4804,2.4916,2.4966,2.4986,2.4729,2.4727,2.4726,2.4725,0,0,2.4213,2.4293,2.4317,2.4353,2.442,2.4482,2.4569,2.4647,2.4691,2.4749,2.4824,2.4932,2.4906,2.4952,2.4957,2.5019,2.5136,2.4984,2.4985,2.5011,2.5285,2.5307,2.533,2.5126,2.513,2.5133,2.528,0,2.4354,2.4507,2.4516,2.4655,2.4729,2.4712,2.4788,2.4838,2.4861,2.4928,2.4954,2.5031,2.4991,2.5018,2.5078,2.5109,2.5191,2.5098,2.5198,2.5201,2.5184,2.5356,2.5379,2.5516,2.53,2.5303,2.5305,0,2.454,2.4601,2.4748,2.4804,2.4835,2.4904,2.4975,2.5039,2.5095,2.5108,2.5158,2.5154,2.5245,2.5186,2.5312,2.5249,2.529,2.5311,2.5317,2.5328,2.5261,2.5373,2.556,2.5581,2.5336,2.5333,2.5331,0,2.4651,2.477,2.4873,2.4904,2.4971,2.502,2.5051,2.5103,2.5149,2.5212,2.5242,2.5315,2.5356,2.5413,2.543,2.5385,2.5557,2.5498,2.5571,2.5571,2.561,2.5608,2.5808,2.5633,2.5633,2.5633,2.5632,0,2.4809,2.49,2.4924,2.4988,2.5089,2.5098,2.5198,2.5226,2.5272,2.5342,2.5332,2.5398,2.5415,2.5484,2.5498,2.5601,2.5619,2.5633,2.5636,2.5635,2.5634,2.5664,2.5656,2.5638,2.5637,2.5636,2.5635,0,2.4951,2.497,2.5082,2.5135,2.5151,2.5224,2.527,2.5332,2.5353,2.5441,2.5462,2.5496,2.5577,2.5598,2.5696,2.5705,2.5827,2.5821,2.5808,2.5809,2.5881,2.5874,2.6109,2.614,2.5944,2.5945,2.5947,0,2.5051,2.512,2.5181,2.5226,2.5258,2.5331,2.5377,2.5388,2.5437,2.5506,2.556,2.5639,2.5703,2.5834,2.5868,2.5943,2.5939,2.6015,2.595,2.5947,2.5942,2.5938,2.5946,2.6029,2.6031,2.6033,2.6034,0,2.5227,2.5233,2.53,2.537,2.5425,2.5481,2.5534,2.5572,2.5591,2.5647,2.5729,2.5778,2.5877,2.5957,2.6032,2.6064,2.6054,2.6054,2.6075,2.6076,2.6066,2.6074,2.5844,2.6049,2.6047,2.6046,2.6046,2.6045,2.5353,2.5413,2.5465,2.554,2.558,2.5631,2.5691,2.5719,2.5787,2.5867,2.5869,2.5959,2.6013,2.6113,2.615,2.6221,2.6198,2.6228,2.6236,2.6244,2.6251,2.6053,2.6234,2.6234,2.6233,2.6233,2.6233,0,2.553,2.5562,2.563,2.5704,2.5763,2.5744,2.5803,2.5854,2.5932,2.5983,2.6045,2.614,2.6217,2.6256,2.6332,2.6382,2.6379,2.6402,2.6399,2.6407,2.6266,2.6241,2.6403,2.6403,2.6403,2.6403,2.6403,2.6403,2.5629,2.5731,2.5743,2.5865,2.5897,2.5983,2.6018,2.6065,2.6105,2.6211,2.6274,2.6298,2.6345,2.6424,2.6494,2.6504,2.6533,2.656,2.6567,2.6434,2.6417,2.6401,2.6377,2.6565,2.6566,2.6702,2.6704,2.6705]}]]